Dewpoint
-17 -15 -13 -4 -8 -7 -4 -3 -5 -3 -2 -1 4 3 3 5 4 6 13 10 12 9 7 5 5 6 3 -6 -5 -2 -2 -1 1 2 1 -1 -2 -4 -5 -4 -3 -1 -0 0 -1 -2 -3 -3 -3
-13 -7 -3 -6 -6 -5 -3 -4 -4 -4 -1 4 5 6 4 8 10 14 12 10 12 8 7 6 5 6 4 -3 -4 -4 -4 -3 -2 -1 -1 -2 -3 -4 -4 -4 -2 -2 -1 -1 -2 -3 -5 -4 -3
-7 -6 -6 -6 -5 -4 -3 -5 -4 -2 2 2 5 7 5 8 11 12 13 11 13 12 11 6 6 6 6 4 2 2 3 3 3 3 2 2 1 -1 -2 -3 -3 -3 -2 -2 -1 -1 -2 -4 -3
-3 -5 -5 -4 -3 -3 -3 -4 -4 -2 1 3 5 6 8 14 13 14 10 11 13 13 13 7 7 7 6 6 7 7 5 5 5 5 5 5 4 3 2 0 -1 -2 -1 -1 -1 0 0 -2 -4
-4 -7 -5 -4 -3 -3 -4 -4 -5 -3 2 5 6 8 9 13 9 7 10 10 14 14 13 8 8 8 7 7 7 7 7 7 7 7 6 6 6 6 6 5 4 3 1 1 1 1 2 1 -1
-6 -5 -7 -4 -3 -4 -3 -2 -2 -1 4 7 5 6 10 13 11 5 10 14 14 13 10 8 9 9 9 9 9 8 8 8 8 8 8 8 7 7 6 6 6 6 6 4 3 3 2 2 2
-5 -7 -5 -4 -2 -2 -2 -2 -3 -0 5 6 8 5 11 12 10 3 7 8 10 9 10 11 11 11 11 11 11 11 10 10 10 10 10 10 10 9 9 8 7 7 7 7 7 6 5 4 3
-2 -4 -4 -4 -4 -2 -3 -2 -3 -3 -2 6 7 6 9 13 11 8 8 8 9 11 11 11 12 12 12 12 12 12 11 11 11 11 11 11 11 11 11 10 10 9 8 7 7 7 8 7 6
-1 -4 -4 -3 -3 -2 -3 -3 -3 -5 -4 3 6 7 11 15 13 14 13 13 11 11 11 11 14 15 15 14 13 13 12 12 12 12 11 11 11 11 11 11 10 10 10 10 8 8 8 8 8
-4 -5 -4 -4 -4 -3 -3 -2 -2 -4 -5 -3 -0 1 10 15 15 14 14 13 14 11 9 10 11 12 12 13 12 12 12 13 13 12 12 12 12 13 12 12 11 11 11 11 11 10 9 8 10
-2 -5 -3 -3 -2 -2 -3 -3 -3 -3 -4 -5 -4 1 12 15 15 14 14 14 15 13 12 11 11 12 12 12 12 12 13 12 12 12 14 14 14 14 12 11 11 12 11 12 12 12 12 13 14
-1 -2 -2 -3 -2 -2 -3 -3 -3 -3 -3 -3 -3 -3 8 13 14 15 14 14 15 14 14 14 15 14 14 14 13 13 13 13 12 12 12 12 12 12 13 13 13 13 12 12 13 12 11 13 14
-1 -2 -2 -2 -2 -2 -2 -2 -3 -3 -3 -2 -2 2 8 12 13 14 14 14 14 14 14 14 14 14 14 13 14 13 13 13 14 13 13 13 12 12 12 12 12 13 12 12 13 13 13 12 11
-1 -1 -2 -2 -2 -2 -2 -2 -2 -3 -2 -1 3 4 9 12 13 13 12 12 12 13 14 13 13 13 14 13 14 14 14 14 14 14 14 13 12 13 13 13 13 13 13 13 13 13 13 13 13
-1 -0 -2 -3 -2 -2 -2 -1 -2 -2 -1 0 4 8 11 13 13 12 11 10 10 10 12 12 12 11 12 12 12 13 13 13 12 12 12 12 12 12 11 11 11 11 10 10 9 9 9 10 10
-1 -1 -1 -3 -2 -2 -2 0 -2 -1 0 1 5 9 10 10 10 8 8 7 7 7 8 7 7 8 9 11 12 11 11 10 8 7 4 0 -0 -0 -1 -2 -1 0 -1 -2 -2 -1 0 2 6
0 -0 0 -1 -2 -1 -0 1 -2 -1 -0 1 4 7 9 8 7 6 7 6 4 3 3 2 1 1 1 1 -1 -2 -5 -6 -6 -8 -10 -11 -13 -14 -15 -16 -16 -16 -16 -15 -13 -11 -5 1 1
0 1 1 1 -0 -0 1 0 -1 -1 -0 0 1 5 7 7 5 6 5 4 3 2 -1 -2 -4 -5 -7 -7 -8 -8 -10 -11 -16 -17 -20 -23 -25 -27 -28 -28 -29 -29 -27 -19 -8 -16 -6 1 1
1 1 1 -0 -1 1 1 0 -1 -0 -0 0 1 3 6 6 3 5 4 3 1 -1 -2 -4 -6 -7 -7 -8 -10 -13 -17 -19 -20 -22 -24 -25 -26 -27 -28 -29 -27 -25 -22 -24 -24 -20 -5 -0 1
1 2 2 0 -0 1 1 1 0 -0 -1 -0 -0 1 3 4 3 3 3 2 0 -2 -4 -6 -7 -6 -7 -10 -13 -18 -20 -20 -20 -20 -20 -21 -23 -25 -27 -25 -16 -13 -10 -8 -8 -6 -5 -2 2
2 2 2 2 1 0 2 1 1 -0 -1 -0 0 0 1 3 3 3 3 1 -1 -3 -5 -6 -5 -6 -7 -7 -6 -8 -7 -4 -4 -5 -10 -15 -17 -22 -25 -17 -10 -8 -8 -6 -6 -6 -8 0 1
2 0 1 1 2 3 1 3 1 -0 -1 -2 -0 1 1 1 2 2 2 1 -1 -4 -5 -5 -6 -6 -3 1 4 5 1 -5 -8 -10 -11 -12 -12 -15 -22 -17 -8 -7 -6 -5 -5 -4 2 3 3
1 1 1 1 3 3 3 4 0 1 -0 -2 -2 -1 0 1 1 1 2 1 -0 -3 -4 -5 -5 -4 3 6 5 5 3 3 3 1 -3 -12 -14 -14 -18 -14 -7 -6 -6 -5 -4 -4 -3 -1 -0
0 1 2 3 3 6 3 3 1 1 0 -2 -2 -1 -0 0 0 1 1 1 -0 -1 -3 -4 -5 1 3 3 2 0 2 1 -6 -10 -11 -13 -12 -12 -11 -12 -7 -5 -6 -7 -7 -7 -6 -4 -1
0 2 4 4 6 5 3 4 2 2 -0 -2 -2 -1 -1 -0 -0 -1 0 1 0 -0 -1 -4 -5 0 -4 -9 -6 2 3 2 -4 -9 -10 -12 -12 -10 -11 -10 -6 -3 -3 -5 -6 -6 -6 -5 -3
2 1 3 5 3 2 3 4 2 0 -1 -2 -1 -1 -0 0 0 -0 -0 0 1 -0 -0 -3 -3 -4 -2 -7 2 3 3 0 -9 -9 -9 -12 -13 -11 -9 -5 -3 -2 -3 -3 -3 -4 -4 -3 -5
5 5 4 7 7 8 3 2 1 0 -0 -1 -1 -0 1 1 0 0 -0 0 1 0 -0 0 -2 -1 0 -4 3 3 1 -6 -8 -8 -10 -12 -13 -13 -11 -8 -6 -3 -1 -1 -1 -1 -3 -1 -1
4 3 6 6 9 7 2 4 3 2 1 -0 1 2 2 2 1 1 1 -0 1 1 -0 -0 -1 1 -5 2 2 2 2 -3 -8 -8 -10 -9 -10 -12 -12 -6 -3 0 0 0 0 0 0 0 -0
5 5 6 7 9 13 12 7 1 -0 0 2 1 2 2 2 2 3 2 1 -0 1 -0 -0 -2 -3 -6 -1 1 1 -2 -8 -8 -8 -8 -8 -9 -8 -4 -1 -0 0 0 0 -0 -0 -0 -0 -0
5 7 6 7 7 10 10 9 1 2 1 2 2 2 2 3 2 1 0 -0 -1 -1 -1 -1 -5 -6 -6 -2 -1 2 2 -7 -7 -7 -7 -7 -7 -7 -8 -5 -2 -1 -1 0 0 -1 -0 -0 -1
Wind_Speed
2 1 1 2 5 5 8 7 3 6 5 2 4 2 4 6 9 5 7 10 13 18 19 19 18 15 12 12 12 13 13 12 11 11 10 9 9 9 9 9 9 8 7 6 5 4 3 3 4
2 1 0 3 5 8 7 5 5 5 2 1 7 2 1 6 6 7 8 11 16 19 20 20 19 17 14 13 13 14 13 13 12 10 9 9 9 9 8 8 7 6 5 4 3 3 2 2 3
3 2 4 3 3 5 7 2 3 4 3 8 8 2 3 5 6 3 6 12 17 19 20 21 19 17 16 15 12 12 12 11 11 10 9 8 7 7 7 7 5 4 3 3 1 1 1 1 1
1 2 3 4 8 8 5 7 8 1 4 4 4 8 6 4 2 2 9 11 16 18 18 21 20 19 17 15 13 11 11 10 9 8 7 7 7 6 6 5 4 3 2 2 1 1 1 1 1
1 4 3 5 9 6 7 8 5 4 3 5 4 7 5 5 6 4 7 11 16 18 19 23 21 19 18 17 16 14 12 10 9 8 7 7 7 6 6 5 4 3 3 3 3 3 2 1 2
5 4 6 7 7 6 8 9 3 0 1 4 3 6 6 7 7 7 8 10 15 19 21 22 21 20 18 17 16 15 14 13 12 12 11 10 10 10 9 9 8 7 7 6 5 5 6 5 4
4 6 5 7 8 7 9 7 7 1 2 5 2 5 5 8 7 10 13 13 15 16 18 20 20 20 19 18 18 17 16 15 15 14 14 13 13 13 13 13 13 12 11 10 9 8 8 8 8
4 5 8 4 6 7 8 5 6 2 5 4 2 5 8 10 11 11 12 15 17 16 17 17 18 17 17 17 17 17 17 17 17 17 16 16 15 15 16 16 16 16 16 16 15 13 12 12 12
3 4 6 5 6 5 6 5 8 3 1 3 2 1 4 15 12 11 12 11 13 15 14 15 11 10 13 16 21 19 19 19 18 18 18 17 17 18 18 17 18 18 19 19 19 19 17 16 16
3 3 4 6 4 4 4 5 7 3 3 3 2 4 6 14 14 12 13 12 11 14 18 18 19 19 17 14 17 18 19 14 14 16 18 18 17 14 15 17 19 19 20 21 21 21 21 21 18
1 2 2 1 5 7 8 7 3 4 6 2 2 2 8 13 16 15 13 13 13 13 15 16 16 14 15 17 18 19 19 21 21 20 15 13 11 14 14 13 14 15 18 17 20 21 21 19 17
6 3 4 4 5 7 12 11 11 11 8 5 7 7 11 15 17 17 16 14 14 17 17 16 16 17 17 15 16 19 20 20 20 19 19 18 16 15 14 13 13 15 14 13 14 16 23 23 24
7 4 4 7 12 14 13 15 17 16 16 13 13 8 12 14 15 15 14 12 12 15 17 17 16 17 17 17 16 16 16 16 17 16 16 16 19 17 16 16 15 16 17 16 15 17 19 19 23
1 7 12 11 15 14 10 15 5 9 9 13 12 11 12 14 14 12 10 8 6 7 9 10 11 9 10 11 11 10 12 15 12 10 14 15 15 15 13 14 14 16 17 18 18 18 20 21 23
4 10 12 3 2 2 4 9 4 9 8 7 8 9 10 11 11 8 7 7 7 6 8 6 6 7 7 7 7 7 8 6 6 6 6 7 9 10 10 13 16 19 20 21 21 22 22 22 19
7 4 5 4 2 3 3 2 2 7 4 4 6 7 7 4 4 4 6 7 7 6 7 7 5 5 6 7 7 7 5 4 3 4 6 7 8 11 13 15 18 21 22 23 24 23 23 20 17
5 7 4 3 2 3 2 7 3 4 6 5 5 4 5 6 6 5 6 6 7 7 7 7 7 6 6 6 6 5 4 1 3 5 6 10 12 14 16 20 23 24 25 26 25 24 21 18 18
3 5 3 3 3 8 8 7 4 5 7 7 2 4 5 5 6 9 9 9 9 9 8 8 7 6 6 5 3 3 3 6 6 10 14 16 18 19 20 22 24 25 24 21 20 22 20 18 17
6 7 11 10 3 6 4 7 5 5 4 2 2 5 7 9 9 12 14 13 12 11 10 10 9 8 6 4 2 3 6 8 10 12 14 16 17 19 21 22 24 26 25 26 25 23 19 15 13
9 9 10 8 3 6 4 9 4 3 4 4 1 5 9 11 11 12 15 16 14 13 13 13 12 11 9 5 3 3 6 10 14 16 17 18 19 20 21 22 22 23 22 20 17 15 15 13 10
10 12 9 11 7 11 8 12 6 6 6 5 4 2 6 11 13 15 18 20 19 17 16 15 15 13 10 7 4 8 9 10 10 15 18 22 20 19 19 20 20 19 19 16 14 13 12 11 10
10 7 12 10 7 8 0 8 5 6 8 7 6 4 5 9 14 16 19 21 23 21 21 20 16 12 8 4 7 15 12 11 15 21 25 25 25 24 24 22 19 17 14 14 14 12 9 9 12
5 1 5 7 10 10 12 7 7 9 7 7 6 4 4 8 11 14 18 20 21 23 24 22 21 16 10 13 16 23 17 21 21 23 24 26 27 26 22 20 18 15 13 14 14 14 13 12 12
2 10 6 6 8 11 15 14 10 6 9 8 5 3 4 7 8 11 15 19 22 22 25 26 22 15 9 6 7 9 10 12 16 18 20 21 22 22 20 19 18 15 12 13 13 14 14 15 14
11 10 7 7 6 10 5 6 11 7 8 8 5 6 3 3 5 9 14 20 24 24 26 27 23 15 8 5 4 7 12 15 14 21 22 22 21 20 19 19 17 16 16 16 16 15 15 15 15
3 7 7 10 11 11 7 7 3 4 9 5 0 1 5 8 6 10 13 18 22 25 24 26 21 17 12 8 7 16 24 16 16 22 23 23 23 23 22 20 19 19 20 21 22 21 20 19 20
4 3 5 7 3 7 10 5 9 7 5 5 2 3 10 14 16 13 14 16 20 25 25 23 20 15 13 8 13 19 19 21 19 24 24 24 24 25 25 24 23 22 21 20 19 20 22 19 19
4 4 3 2 5 11 6 6 9 7 7 5 2 7 15 21 15 14 14 15 16 21 23 21 20 15 12 10 19 26 29 23 21 25 24 25 26 26 26 25 23 22 22 20 20 19 19 20 19
1 2 4 5 4 5 6 6 6 7 6 4 7 13 17 13 14 14 14 12 12 14 18 17 19 15 17 15 26 33 20 21 22 25 26 27 27 26 24 22 22 23 23 22 22 22 21 22 21
1 3 2 2 4 4 3 8 10 5 3 9 13 14 12 11 11 11 12 9 5 7 12 13 16 19 18 23 34 33 28 24 25 26 26 26 27 26 26 24 23 24 25 24 24 24 22 22 23
Wind_Direction
139 77 22 301 228 237 133 122 21 135 148 76 180 253 3 20 11 30 142 159 161 166 169 168 167 158 145 140 159 161 158 152 152 152 142 134 131 132 134 137 139 137 138 140 136 137 134 124 112
116 78 345 255 238 168 118 114 138 63 69 106 162 167 143 81 65 105 135 160 162 172 171 175 173 164 153 145 148 145 145 147 147 143 138 132 132 131 128 129 134 136 136 131 119 112 108 115 123
93 74 262 274 244 82 127 117 18 34 155 165 174 10 51 64 69 102 177 169 166 170 169 180 177 172 167 160 162 155 152 151 149 148 143 138 132 131 126 129 135 132 131 133 133 113 93 103 129
216 229 214 253 95 69 354 341 342 336 139 189 180 106 100 40 65 104 165 168 166 165 171 182 182 180 179 176 175 174 169 169 167 163 159 156 154 152 151 152 156 158 159 168 222 226 178 180 209
293 214 192 123 96 76 35 0 345 310 120 140 213 125 97 76 108 137 162 171 163 165 181 185 186 186 188 190 191 191 190 192 193 190 190 188 185 187 191 193 195 199 207 219 241 274 278 246 247
211 254 200 158 104 67 55 25 7 222 161 151 154 134 101 129 116 153 156 159 169 176 182 189 191 193 195 200 201 203 204 207 209 209 212 213 213 214 214 214 216 219 226 232 240 259 272 271 256
293 245 159 149 126 86 30 6 32 9 168 112 133 170 123 142 142 162 168 180 177 184 188 194 200 203 205 209 211 214 215 219 221 222 225 225 226 227 228 229 230 230 232 236 236 243 256 263 264
328 287 179 175 163 103 33 10 3 11 95 137 186 159 160 182 163 151 161 176 182 184 192 199 206 210 217 224 224 226 228 229 232 233 234 234 237 238 238 238 238 237 238 240 241 240 243 255 261
332 245 194 159 183 94 40 4 27 356 200 144 165 57 157 171 176 153 155 158 179 187 190 194 197 208 212 217 220 224 228 233 237 240 243 245 243 244 247 248 251 247 245 245 246 247 244 244 252
278 259 52 16 31 348 339 340 350 309 161 171 194 239 183 175 180 177 170 171 174 189 201 202 201 206 212 217 222 225 230 234 235 240 245 243 245 247 241 243 243 246 246 246 248 249 251 251 246
124 297 54 25 319 319 309 294 311 280 210 228 286 175 185 190 192 196 194 189 184 203 214 215 214 218 225 232 233 226 223 222 227 226 224 236 236 242 244 252 263 262 257 256 257 255 257 253 248
261 264 259 277 288 292 294 309 285 265 267 267 292 269 204 200 202 199 198 193 193 204 217 221 224 224 230 238 233 238 236 239 240 239 239 233 230 232 234 248 254 257 265 268 274 269 260 250 247
261 284 262 265 271 275 282 268 278 275 270 269 276 246 209 204 201 197 196 190 194 202 212 220 230 234 236 237 235 231 236 241 243 246 241 234 244 241 243 248 251 259 260 260 258 260 260 261 262
165 279 279 274 277 277 272 280 277 262 271 242 244 231 210 202 198 190 180 175 180 196 203 209 217 220 219 222 228 230 236 240 237 237 251 242 244 246 243 246 255 263 264 267 269 261 262 260 254
260 282 288 291 50 149 261 226 226 330 305 258 226 198 195 193 191 185 177 160 161 168 199 195 190 185 188 198 202 199 208 219 236 253 254 261 266 257 256 259 263 267 271 271 271 271 271 271 271
272 259 262 136 216 107 246 66 180 355 337 266 208 193 182 168 155 156 150 152 142 155 185 186 175 161 160 155 160 165 175 199 224 253 276 280 280 282 287 287 285 284 285 284 281 279 277 274 270
184 288 280 212 126 3 305 311 47 352 318 288 220 185 163 157 146 168 172 160 147 161 165 166 156 147 141 133 131 132 134 185 283 295 307 312 310 307 303 298 295 294 291 288 285 283 282 278 276
342 278 234 277 112 306 293 291 317 307 293 295 261 174 168 169 168 193 187 179 179 183 179 166 157 151 136 114 89 61 0 330 351 331 326 327 324 322 319 316 311 307 301 293 285 283 279 279 278
278 268 273 277 299 290 289 290 307 16 329 297 206 194 192 186 194 198 204 205 200 191 184 177 178 169 146 111 49 2 354 345 350 342 336 333 329 327 324 322 317 311 303 296 293 289 288 283 280
254 266 275 279 133 274 304 293 337 51 66 27 335 192 195 190 195 209 212 212 205 203 198 194 185 177 162 143 112 36 7 346 343 346 340 336 330 330 329 327 323 315 307 297 288 283 276 280 279
243 265 278 285 308 260 270 257 180 119 112 88 78 123 185 203 207 208 216 216 211 207 203 195 189 185 180 167 87 25 7 360 351 344 341 336 333 329 330 334 329 319 309 299 292 285 286 285 279
259 250 262 277 278 280 79 289 192 152 123 100 99 127 164 196 214 217 215 213 213 208 204 201 198 194 194 202 306 310 336 345 340 340 339 338 335 334 336 336 336 337 321 305 296 282 272 282 286
254 81 285 282 267 278 240 262 244 167 166 114 89 102 156 208 214 224 224 221 215 214 212 207 207 211 245 278 280 279 307 309 318 328 328 317 321 320 318 325 328 327 321 307 297 290 282 269 270
169 278 249 246 261 251 252 249 275 203 184 135 112 108 179 200 224 239 232 224 218 213 215 218 218 235 263 282 287 293 305 323 331 316 311 314 314 310 310 315 316 311 303 292 287 281 278 272 269
249 262 271 246 213 259 55 258 257 112 132 121 104 77 111 178 254 267 238 228 222 218 216 221 220 241 232 217 251 314 324 318 314 313 315 317 314 307 304 302 301 296 290 288 283 277 273 273 268
226 259 247 277 282 301 134 255 199 104 143 136 85 29 45 347 318 319 275 244 232 227 221 222 226 226 233 229 316 329 322 310 300 309 312 314 313 308 305 299 294 291 289 288 280 275 272 268 266
125 242 2 288 233 266 260 252 252 152 177 191 210 46 357 348 350 323 296 267 245 231 225 219 224 215 230 237 312 328 324 291 293 304 310 313 314 309 302 295 291 288 283 278 279 277 277 274 272
342 40 280 302 294 289 272 240 274 191 201 188 106 358 350 353 341 325 306 282 259 234 226 219 218 215 217 286 317 319 299 280 290 301 307 312 312 306 299 294 288 284 277 272 273 275 275 274 270
205 122 60 357 5 316 313 307 27 328 1 358 7 353 350 348 341 337 327 303 273 243 230 218 222 226 240 298 315 309 289 277 287 296 304 309 308 304 293 284 280 277 274 271 270 272 272 272 272
337 127 115 165 262 220 220 264 288 298 20 8 343 344 346 353 6 8 9 360 319 248 219 224 238 249 255 297 296 298 290 279 288 295 303 308 307 304 297 290 279 278 275 272 270 270 269 269 271
Height
1531 1532 1532 1533 1528 1515 1524 1525 1523 1521 1525 1528 1527 1527 1525 1527 1527 1533 1538 1537 1540 1541 1545 1547 1549 1551 1553 1554 1557 1559 1560 1562 1563 1565 1565 1566 1566 1567 1568 1568 1569 1569 1569 1570 1570 1571 1570 1571 1571
1533 1532 1533 1531 1520 1519 1525 1523 1521 1522 1528 1531 1532 1531 1528 1531 1534 1537 1539 1537 1540 1541 1544 1547 1550 1552 1554 1556 1558 1560 1561 1562 1563 1564 1565 1566 1567 1567 1568 1569 1569 1569 1570 1571 1571 1572 1571 1571 1572
1533 1533 1531 1523 1517 1516 1523 1524 1524 1526 1529 1528 1529 1531 1532 1535 1538 1540 1538 1539 1542 1543 1545 1547 1550 1552 1554 1556 1559 1560 1561 1562 1563 1564 1565 1566 1567 1568 1568 1568 1569 1570 1570 1570 1571 1571 1572 1572 1572
1535 1535 1533 1518 1525 1532 1529 1526 1528 1527 1530 1530 1527 1530 1536 1539 1540 1539 1539 1540 1544 1546 1547 1549 1551 1553 1554 1556 1558 1560 1561 1562 1563 1564 1565 1566 1567 1567 1568 1569 1570 1570 1570 1570 1570 1571 1571 1572 1572
1535 1531 1522 1523 1531 1529 1529 1530 1530 1529 1528 1528 1528 1531 1535 1539 1539 1540 1541 1541 1545 1547 1546 1548 1551 1553 1554 1555 1557 1558 1560 1561 1562 1563 1564 1565 1566 1567 1568 1569 1569 1569 1570 1570 1570 1570 1570 1571 1572
1531 1528 1520 1524 1531 1530 1529 1531 1531 1529 1530 1532 1530 1532 1537 1538 1540 1540 1543 1544 1546 1546 1547 1550 1552 1553 1555 1556 1557 1558 1559 1560 1560 1561 1562 1563 1564 1565 1565 1566 1567 1567 1568 1569 1569 1569 1569 1569 1570
1530 1521 1521 1524 1530 1530 1533 1532 1531 1530 1529 1530 1532 1530 1539 1541 1539 1539 1542 1545 1547 1550 1552 1553 1554 1555 1555 1556 1557 1558 1558 1560 1561 1561 1561 1562 1562 1563 1563 1563 1564 1565 1566 1566 1567 1567 1567 1567 1568
1535 1529 1529 1525 1527 1534 1534 1534 1533 1531 1531 1533 1532 1528 1535 1541 1538 1541 1543 1544 1547 1549 1551 1554 1555 1556 1558 1559 1559 1559 1559 1559 1560 1560 1560 1560 1561 1561 1561 1561 1561 1561 1562 1563 1564 1564 1565 1565 1566
1537 1529 1528 1531 1531 1533 1535 1533 1533 1533 1532 1533 1533 1535 1536 1537 1539 1541 1543 1546 1546 1548 1550 1551 1554 1557 1557 1556 1556 1557 1558 1558 1559 1559 1559 1559 1559 1558 1559 1559 1559 1559 1559 1560 1561 1561 1562 1562 1562
1535 1530 1529 1535 1536 1534 1536 1535 1534 1532 1531 1533 1533 1533 1536 1536 1539 1542 1543 1545 1546 1546 1546 1547 1549 1550 1553 1555 1555 1556 1557 1558 1557 1557 1556 1557 1557 1558 1558 1556 1556 1556 1556 1556 1557 1558 1558 1558 1560
1538 1531 1537 1537 1539 1538 1536 1534 1534 1532 1527 1529 1532 1534 1535 1537 1538 1541 1543 1543 1544 1543 1544 1546 1547 1549 1550 1551 1553 1554 1553 1552 1551 1552 1553 1555 1556 1556 1555 1554 1555 1555 1554 1553 1553 1554 1555 1556 1557
1537 1537 1536 1535 1537 1538 1536 1535 1533 1531 1529 1530 1531 1532 1532 1534 1536 1537 1540 1539 1539 1539 1540 1543 1545 1545 1546 1548 1549 1550 1550 1551 1550 1550 1551 1551 1552 1553 1552 1552 1552 1553 1551 1551 1551 1551 1551 1551 1551
1537 1537 1537 1534 1534 1533 1533 1534 1530 1529 1528 1528 1528 1528 1530 1532 1534 1536 1538 1538 1537 1537 1537 1539 1541 1543 1543 1543 1545 1546 1546 1548 1549 1549 1549 1549 1549 1549 1549 1549 1549 1548 1547 1546 1546 1546 1546 1546 1546
1535 1536 1534 1532 1528 1528 1531 1528 1529 1523 1524 1526 1526 1528 1529 1531 1533 1534 1534 1537 1539 1540 1538 1538 1538 1540 1541 1541 1542 1543 1544 1544 1546 1544 1545 1544 1545 1545 1545 1545 1544 1545 1544 1542 1542 1542 1542 1541 1541
1534 1533 1527 1525 1526 1527 1528 1523 1524 1524 1523 1524 1525 1527 1528 1531 1532 1534 1535 1535 1536 1538 1538 1539 1540 1539 1540 1540 1541 1541 1542 1543 1544 1544 1544 1543 1544 1545 1543 1542 1541 1541 1539 1538 1537 1538 1537 1536 1536
1529 1529 1523 1524 1523 1526 1525 1518 1521 1522 1521 1523 1525 1527 1529 1532 1535 1535 1534 1534 1537 1536 1537 1538 1539 1540 1541 1541 1541 1542 1543 1543 1542 1542 1542 1542 1541 1541 1541 1540 1538 1537 1536 1535 1533 1532 1531 1530 1530
1525 1522 1526 1522 1521 1523 1521 1519 1516 1521 1520 1520 1524 1529 1531 1531 1533 1533 1536 1536 1536 1537 1538 1538 1538 1540 1541 1542 1541 1541 1542 1543 1542 1542 1540 1540 1539 1538 1537 1535 1534 1533 1531 1530 1529 1527 1526 1525 1524
1524 1527 1525 1522 1518 1519 1519 1516 1515 1518 1520 1519 1523 1528 1531 1533 1532 1532 1534 1536 1536 1537 1538 1538 1540 1541 1541 1542 1542 1542 1543 1543 1540 1540 1539 1537 1536 1535 1533 1530 1528 1526 1525 1523 1522 1520 1520 1519 1519
1529 1530 1530 1520 1516 1521 1516 1515 1512 1516 1519 1519 1522 1526 1529 1531 1530 1531 1533 1535 1537 1537 1537 1536 1537 1539 1540 1541 1542 1542 1541 1543 1539 1538 1536 1535 1533 1531 1529 1527 1524 1522 1520 1517 1516 1514 1514 1515 1515
1529 1528 1524 1515 1518 1521 1512 1513 1511 1516 1519 1520 1520 1522 1526 1529 1530 1530 1531 1533 1535 1537 1537 1536 1536 1536 1536 1537 1538 1539 1539 1541 1540 1537 1535 1533 1530 1527 1526 1522 1519 1517 1516 1514 1512 1511 1510 1511 1511
1526 1527 1523 1521 1515 1513 1514 1507 1510 1515 1517 1520 1521 1522 1524 1527 1529 1528 1528 1530 1532 1534 1536 1536 1536 1535 1534 1533 1534 1536 1538 1539 1539 1538 1534 1531 1528 1525 1523 1519 1517 1514 1512 1510 1507 1506 1505 1506 1507
1524 1518 1519 1517 1519 1517 1511 1518 1503 1511 1513 1517 1519 1521 1523 1524 1526 1525 1525 1526 1528 1530 1532 1533 1534 1534 1533 1531 1531 1532 1535 1536 1535 1534 1532 1528 1523 1520 1516 1515 1515 1510 1509 1507 1506 1504 1502 1503 1504
1517 1519 1519 1516 1515 1513 1511 1518 1495 1509 1513 1515 1518 1520 1522 1523 1523 1523 1524 1526 1527 1528 1529 1529 1529 1531 1530 1529 1528 1528 1531 1532 1530 1529 1527 1528 1524 1519 1517 1514 1512 1510 1506 1507 1505 1503 1500 1501 1500
1517 1516 1516 1516 1512 1522 1506 1508 1500 1493 1505 1514 1519 1521 1521 1521 1521 1521 1522 1523 1524 1525 1526 1527 1528 1529 1529 1528 1527 1526 1527 1528 1528 1528 1527 1523 1520 1517 1513 1511 1509 1508 1506 1505 1503 1502 1499 1499 1496
1517 1517 1522 1520 1520 1514 1502 1508 1498 1501 1510 1513 1516 1518 1519 1520 1518 1518 1518 1518 1521 1522 1521 1524 1527 1528 1527 1526 1525 1525 1524 1524 1525 1524 1522 1519 1517 1513 1509 1506 1505 1505 1504 1501 1500 1499 1497 1495 1493
1514 1512 1520 1527 1515 1504 1510 1511 1496 1502 1510 1513 1516 1518 1518 1520 1517 1515 1516 1516 1518 1520 1520 1521 1524 1525 1525 1525 1525 1524 1522 1522 1521 1521 1519 1516 1513 1509 1505 1502 1500 1500 1499 1496 1496 1494 1492 1489 1488
1517 1517 1516 1519 1525 1524 1503 1494 1496 1507 1510 1511 1514 1516 1517 1517 1514 1514 1514 1513 1514 1516 1517 1519 1521 1523 1523 1524 1523 1521 1520 1520 1518 1517 1514 1511 1508 1504 1501 1498 1495 1493 1493 1492 1489 1486 1484 1482 1481
1516 1520 1522 1519 1535 1523 1495 1505 1501 1503 1506 1508 1511 1515 1515 1512 1513 1512 1511 1510 1509 1512 1514 1516 1518 1519 1520 1521 1519 1519 1517 1516 1514 1512 1510 1507 1503 1499 1497 1493 1490 1488 1487 1486 1484 1481 1479 1476 1474
1521 1521 1528 1532 1541 1547 1536 1512 1500 1501 1504 1508 1510 1513 1514 1514 1513 1511 1509 1507 1507 1509 1513 1514 1514 1516 1517 1516 1516 1516 1514 1511 1509 1507 1504 1500 1497 1494 1492 1490 1487 1485 1483 1480 1478 1475 1473 1470 1468
1526 1528 1531 1540 1541 1547 1551 1530 1502 1504 1510 1512 1514 1515 1515 1514 1512 1510 1507 1506 1506 1508 1511 1512 1512 1514 1514 1513 1513 1511 1508 1506 1504 1501 1498 1494 1492 1489 1487 1484 1481 1479 1476 1474 1471 1468 1466 1463 1460